LNI1891 WAMG-WAAA

Flight info

Callsign LNI1891
Flight time N/A
Altitude 36000
Route ENTEG W32 VENRU
Aircraft B738/M-SDE2E3FGHIRWXY/LB1

Departure

Time 2026-05-05 04:42
Airport Jalaluddin Airport (WAMG)

Arrival

Time N/A
Airport Sultan Hasanuddin International Airport (WAAA)
Time Latitude Longitude Altitude Speed Heading
2026-05-05 04:17 0.64014 122.84470 122 ft 0 kts
2026-05-05 04:31 0.63998 122.84468 122 ft 3 kts
2026-05-05 04:31 0.63977 122.84466 122 ft 3 kts
2026-05-05 04:31 0.63959 122.84463 120 ft 1 kts 358°
2026-05-05 04:32 0.63950 122.84466 120 ft 1 kts 297°
2026-05-05 04:32 0.63947 122.84474 120 ft 1 kts 281°
2026-05-05 04:32 0.63946 122.84482 117 ft 1 kts 278°
2026-05-05 04:32 0.63945 122.84491 116 ft 1 kts 277°
2026-05-05 04:33 0.63944 122.84495 116 ft 0 kts 277°
2026-05-05 04:35 0.63945 122.84495 116 ft 1 kts 277°
2026-05-05 04:35 0.63947 122.84476 120 ft 4 kts 277°
2026-05-05 04:35 0.63951 122.84443 120 ft 5 kts 277°
2026-05-05 04:36 0.63955 122.84410 120 ft 5 kts 278°
2026-05-05 04:36 0.63958 122.84378 120 ft 5 kts 268°
2026-05-05 04:36 0.63943 122.84348 118 ft 5 kts 217°
2026-05-05 04:36 0.63905 122.84342 119 ft 6 kts 187°
2026-05-05 04:37 0.63864 122.84337 120 ft 6 kts 187°
2026-05-05 04:37 0.63824 122.84332 120 ft 6 kts 186°
2026-05-05 04:37 0.63794 122.84353 117 ft 6 kts 114°
2026-05-05 04:37 0.63784 122.84402 120 ft 9 kts 97°
2026-05-05 04:38 0.63774 122.84478 116 ft 13 kts 97°
2026-05-05 04:38 0.63761 122.84586 114 ft 18 kts 97°
2026-05-05 04:38 0.63744 122.84725 115 ft 22 kts 97°
2026-05-05 04:38 0.63723 122.84889 114 ft 26 kts 97°
2026-05-05 04:39 0.63698 122.85079 112 ft 28 kts 97°
2026-05-05 04:39 0.63672 122.85269 117 ft 27 kts 98°
2026-05-05 04:39 0.63649 122.85448 117 ft 25 kts 97°
2026-05-05 04:39 0.63628 122.85615 116 ft 23 kts 97°
2026-05-05 04:40 0.63608 122.85772 122 ft 23 kts 97°
2026-05-05 04:40 0.63591 122.85925 120 ft 22 kts 84°
2026-05-05 04:40 0.63595 122.86019 117 ft 9 kts 143°
2026-05-05 04:40 0.63576 122.86010 117 ft 2 kts 257°
2026-05-05 04:41 0.63580 122.85991 116 ft 0 kts 277°
2026-05-05 04:41 0.63583 122.85966 116 ft 10 kts 277°
2026-05-05 04:41 0.63601 122.85827 120 ft 45 kts 277°
2026-05-05 04:42 0.63681 122.85210 115 ft 132 kts 277°
2026-05-05 04:42 0.63828 122.84059 236 ft 193 kts 277°
2026-05-05 04:42 0.63983 122.82737 1442 ft 189 kts 277°
2026-05-05 04:42 0.64163 122.81509 2651 ft 173 kts 278°
2026-05-05 04:43 0.64318 122.80245 3132 ft 198 kts 275°
2026-05-05 04:43 0.64162 122.78796 3382 ft 224 kts 245°
2026-05-05 04:43 0.63238 122.77471 3671 ft 242 kts 221°
2026-05-05 04:43 0.61745 122.76682 4216 ft 249 kts 194°
2026-05-05 04:44 0.59957 122.76574 4569 ft 268 kts 164°
2026-05-05 04:44 0.58393 122.77540 5372 ft 270 kts 130°
2026-05-05 04:44 0.57246 122.79049 6133 ft 275 kts 128°
2026-05-05 04:44 0.56054 122.80560 6936 ft 279 kts 128°
2026-05-05 04:45 0.54841 122.82096 7713 ft 283 kts 128°
2026-05-05 04:45 0.53621 122.83652 8503 ft 287 kts 128°
2026-05-05 04:45 0.52372 122.85219 9250 ft 290 kts 134°
2026-05-05 04:45 0.50704 122.86376 9870 ft 297 kts 159°
2026-05-05 04:46 0.48705 122.86837 10636 ft 300 kts 173°
2026-05-05 04:46 0.46551 122.87058 10859 ft 323 kts 175°
2026-05-05 04:46 0.44232 122.87232 11068 ft 343 kts 176°
2026-05-05 04:46 0.41812 122.87407 11536 ft 353 kts 176°
2026-05-05 04:47 0.39357 122.87595 12244 ft 354 kts 175°
2026-05-05 04:47 0.37728 122.87725 12687 ft 356 kts 175°
2026-05-05 04:47 0.34389 122.88003 13481 ft 362 kts 175°
2026-05-05 04:47 0.32721 122.88146 13920 ft 364 kts 175°
2026-05-05 04:48 0.30190 122.88366 14540 ft 366 kts 175°
2026-05-05 04:48 0.27644 122.88589 15141 ft 370 kts 174°
2026-05-05 04:48 0.25067 122.88815 15695 ft 373 kts 174°
2026-05-05 04:48 0.22470 122.89043 16281 ft 376 kts 174°
2026-05-05 04:49 0.18979 122.89350 16943 ft 381 kts 174°
2026-05-05 04:49 0.17196 122.89506 17431 ft 380 kts 175°
2026-05-05 04:49 0.14551 122.89738 17944 ft 384 kts 174°
2026-05-05 04:49 0.11867 122.89988 18311 ft 391 kts 174°
2026-05-05 04:50 0.09161 122.90256 19008 ft 388 kts 174°
2026-05-05 04:50 0.06486 122.90525 19697 ft 385 kts 174°
2026-05-05 04:50 0.03808 122.90796 20228 ft 387 kts 174°
2026-05-05 04:50 0.01102 122.91069 20499 ft 397 kts 173°
2026-05-05 04:51 -0.01695 122.91350 20647 ft 409 kts 173°
2026-05-05 04:51 -0.04504 122.91631 21008 ft 413 kts 173°
2026-05-05 04:51 -0.07410 122.91920 21494 ft 414 kts 173°
2026-05-05 04:51 -0.10240 122.92201 21956 ft 415 kts 173°
2026-05-05 04:52 -0.13163 122.92492 22386 ft 418 kts 172°
2026-05-05 04:52 -0.16021 122.92775 22782 ft 420 kts 172°
2026-05-05 04:52 -0.18940 122.93065 23173 ft 422 kts 172°
2026-05-05 04:52 -0.21867 122.93356 23560 ft 424 kts 172°
2026-05-05 04:53 -0.24811 122.93649 23934 ft 426 kts 172°
2026-05-05 04:53 -0.27763 122.93942 24301 ft 428 kts 172°
2026-05-05 04:53 -0.30731 122.94237 24662 ft 430 kts 172°
2026-05-05 04:53 -0.33708 122.94533 24994 ft 432 kts 172°
2026-05-05 04:54 -0.36713 122.94832 25304 ft 434 kts 172°
2026-05-05 04:54 -0.39729 122.95132 25615 ft 437 kts 172°
2026-05-05 04:54 -0.42761 122.95433 25930 ft 438 kts 172°
2026-05-05 04:54 -0.45797 122.95735 26228 ft 440 kts 172°
2026-05-05 04:55 -0.48848 122.96038 26514 ft 442 kts 173°
2026-05-05 04:55 -0.51920 122.96344 26788 ft 444 kts 173°
2026-05-05 04:55 -0.55013 122.96651 27067 ft 446 kts 173°
2026-05-05 04:55 -0.58109 122.96959 27340 ft 448 kts 173°
2026-05-05 04:56 -0.61212 122.97267 27602 ft 450 kts 173°
2026-05-05 04:56 -0.64336 122.97578 27851 ft 452 kts 173°
2026-05-05 04:56 -0.67467 122.97889 28073 ft 454 kts 173°
2026-05-05 04:56 -0.70621 122.98203 28202 ft 458 kts 173°
2026-05-05 04:57 -0.73801 122.98519 28418 ft 459 kts 173°
2026-05-05 04:57 -0.76974 122.98834 28749 ft 458 kts 173°
2026-05-05 04:57 -0.80144 122.99149 28970 ft 459 kts 173°
2026-05-05 04:57 -0.83341 122.99467 29111 ft 463 kts 173°
2026-05-05 04:58 -0.86562 122.99488 29279 ft 467 kts 187°
2026-05-05 04:58 -0.89693 122.98609 29529 ft 470 kts 202°
2026-05-05 04:58 -0.92497 122.96930 29752 ft 474 kts 218°
2026-05-05 04:58 -0.95012 122.94804 29972 ft 475 kts 219°
2026-05-05 04:59 -0.97463 122.92643 30127 ft 477 kts 220°
2026-05-05 04:59 -0.99950 122.90427 30279 ft 479 kts 220°
2026-05-05 04:59 -1.02446 122.88211 30452 ft 481 kts 220°
2026-05-05 04:59 -1.04958 122.86001 30636 ft 482 kts 220°
2026-05-05 05:00 -1.07481 122.83799 30835 ft 482 kts 219°
2026-05-05 05:00 -1.10010 122.81606 31088 ft 481 kts 219°
2026-05-05 05:00 -1.12544 122.79416 31368 ft 480 kts 219°
2026-05-05 05:00 -1.15069 122.77238 31622 ft 479 kts 219°
2026-05-05 05:01 -1.17592 122.75063 31849 ft 479 kts 219°
2026-05-05 05:01 -1.20114 122.72888 32080 ft 479 kts 219°
2026-05-05 05:01 -1.22635 122.70713 32330 ft 478 kts 219°
2026-05-05 05:01 -1.25152 122.68541 32579 ft 478 kts 219°
2026-05-05 05:02 -1.27667 122.66370 32808 ft 477 kts 219°
2026-05-05 05:02 -1.30180 122.64200 33038 ft 477 kts 219°
2026-05-05 05:02 -1.32688 122.62034 33278 ft 477 kts 219°
2026-05-05 05:02 -1.35197 122.59867 33515 ft 476 kts 219°
2026-05-05 05:03 -1.37700 122.57706 33740 ft 476 kts 219°
2026-05-05 05:03 -1.40202 122.55546 33964 ft 475 kts 219°
2026-05-05 05:03 -1.42699 122.53389 34194 ft 475 kts 219°
2026-05-05 05:03 -1.45200 122.51230 34427 ft 474 kts 219°
2026-05-05 05:04 -1.47694 122.49076 34659 ft 473 kts 219°
2026-05-05 05:04 -1.50180 122.46928 34922 ft 472 kts 219°
2026-05-05 05:04 -1.52648 122.44797 35315 ft 467 kts 219°
2026-05-05 05:04 -1.55094 122.42683 35634 ft 464 kts 219°
2026-05-05 05:05 -1.57542 122.40569 35783 ft 465 kts 219°
2026-05-05 05:05 -1.59994 122.38452 35896 ft 467 kts 219°
2026-05-05 05:05 -1.62456 122.36326 35935 ft 469 kts 219°
2026-05-05 05:06 -1.67388 122.32066 35936 ft 467 kts 219°
2026-05-05 05:06 -1.72295 122.27826 35939 ft 465 kts 219°
2026-05-05 05:07 -1.77180 122.23606 35939 ft 464 kts 219°
2026-05-05 05:07 -1.82054 122.19395 35940 ft 462 kts 219°
2026-05-05 05:08 -1.86885 122.15221 35940 ft 462 kts 219°
2026-05-05 05:08 -1.91743 122.11023 35941 ft 462 kts 219°
2026-05-05 05:09 -1.96606 122.06820 35942 ft 463 kts 219°
2026-05-05 05:09 -2.01492 122.02598 35859 ft 466 kts 219°
2026-05-05 05:10 -2.06394 121.98361 35868 ft 467 kts 219°
2026-05-05 05:10 -2.11312 121.94110 35853 ft 468 kts 219°
2026-05-05 05:11 -2.16239 121.89850 35863 ft 468 kts 219°
2026-05-05 05:11 -2.21163 121.85592 35860 ft 468 kts 219°
2026-05-05 05:12 -2.26096 121.81327 35855 ft 468 kts 219°
2026-05-05 05:12 -2.31018 121.77070 35850 ft 468 kts 219°
2026-05-05 05:13 -2.35943 121.72809 35864 ft 468 kts 219°
2026-05-05 05:13 -2.40870 121.68548 35867 ft 468 kts 219°
2026-05-05 05:14 -2.45853 121.64364 35866 ft 468 kts 217°
2026-05-05 05:14 -2.50919 121.60248 35861 ft 469 kts 218°
2026-05-05 05:15 -2.55987 121.56122 35855 ft 470 kts 218°
2026-05-05 05:15 -2.61042 121.51985 35860 ft 470 kts 218°
2026-05-05 05:16 -2.66089 121.47845 35852 ft 469 kts 218°
2026-05-05 05:16 -2.71124 121.43712 35859 ft 468 kts 218°
2026-05-05 05:17 -2.76151 121.39587 35854 ft 467 kts 218°
2026-05-05 05:17 -2.81168 121.35471 35853 ft 466 kts 218°
2026-05-05 05:18 -2.86185 121.31354 35860 ft 466 kts 218°
2026-05-05 05:18 -2.91201 121.27237 35850 ft 466 kts 218°
2026-05-05 05:19 -2.96217 121.23120 35855 ft 466 kts 218°
2026-05-05 05:19 -3.01230 121.19003 35849 ft 466 kts 218°
2026-05-05 05:20 -3.06246 121.14885 35863 ft 466 kts 218°
2026-05-05 05:20 -3.08874 121.12998 35836 ft 465 kts 205°
2026-05-05 05:20 -3.11876 121.11861 35866 ft 461 kts 190°
2026-05-05 05:21 -3.18250 121.11513 35848 ft 460 kts 179°
2026-05-05 05:21 -3.24611 121.11511 35867 ft 461 kts 180°
2026-05-05 05:22 -3.31076 121.11413 35859 ft 462 kts 180°
2026-05-05 05:22 -3.37408 121.10713 35859 ft 465 kts 199°
2026-05-05 05:22 -3.40304 121.09274 35843 ft 468 kts 215°
2026-05-05 05:23 -3.42833 121.07219 35887 ft 469 kts 219°
2026-05-05 05:23 -3.47726 121.02875 35867 ft 471 kts 220°
2026-05-05 05:24 -3.52626 120.98507 35866 ft 472 kts 220°
2026-05-05 05:24 -3.57566 120.94174 35860 ft 472 kts 220°
2026-05-05 05:25 -3.62525 120.89861 35851 ft 471 kts 219°
2026-05-05 05:25 -3.67465 120.85568 35850 ft 469 kts 219°
2026-05-05 05:26 -3.72387 120.81289 35847 ft 467 kts 219°
2026-05-05 05:26 -3.77284 120.77029 35857 ft 466 kts 219°
2026-05-05 05:27 -3.82163 120.72783 35855 ft 464 kts 219°
2026-05-05 05:27 -3.89456 120.66436 35855 ft 463 kts 219°
2026-05-05 05:28 -3.91902 120.64308 35615 ft 469 kts 219°
2026-05-05 05:28 -3.94370 120.62160 35375 ft 470 kts 219°
2026-05-05 05:28 -3.96832 120.60016 35121 ft 468 kts 219°
2026-05-05 05:28 -3.99285 120.57880 34874 ft 467 kts 219°
2026-05-05 05:29 -4.01738 120.55744 34627 ft 467 kts 219°
2026-05-05 05:29 -4.04194 120.53605 34380 ft 467 kts 219°
2026-05-05 05:29 -4.06645 120.51470 34134 ft 468 kts 219°
2026-05-05 05:29 -4.09105 120.49328 33891 ft 469 kts 219°
2026-05-05 05:30 -4.11554 120.47194 33393 ft 466 kts 219°
2026-05-05 05:30 -4.13984 120.45076 32958 ft 461 kts 219°
2026-05-05 05:30 -4.16397 120.42973 32477 ft 458 kts 219°
2026-05-05 05:30 -4.18788 120.40889 31997 ft 454 kts 219°
2026-05-05 05:31 -4.21133 120.38846 31528 ft 451 kts 219°
2026-05-05 05:31 -4.23495 120.36788 31062 ft 448 kts 219°
2026-05-05 05:31 -4.25835 120.34751 30584 ft 445 kts 218°
2026-05-05 05:31 -4.28424 120.33031 30066 ft 439 kts 201°
2026-05-05 05:32 -4.31216 120.32026 29652 ft 433 kts 196°
2026-05-05 05:32 -4.34098 120.31103 29127 ft 431 kts 199°
2026-05-05 05:32 -4.36821 120.29828 28478 ft 434 kts 208°
2026-05-05 05:32 -4.39427 120.28295 27900 ft 434 kts 210°
2026-05-05 05:33 -4.42002 120.26727 27387 ft 432 kts 210°
2026-05-05 05:33 -4.44558 120.25163 26918 ft 429 kts 210°
2026-05-05 05:33 -4.47097 120.23619 26471 ft 426 kts 210°
2026-05-05 05:33 -4.49611 120.22103 26037 ft 416 kts 210°
2026-05-05 05:34 -4.52076 120.20627 25349 ft 411 kts 210°
2026-05-05 05:34 -4.54528 120.19167 24601 ft 408 kts 210°
2026-05-05 05:34 -4.56954 120.17727 23906 ft 403 kts 210°
2026-05-05 05:34 -4.59347 120.16308 23321 ft 396 kts 210°
2026-05-05 05:35 -4.61697 120.14914 22678 ft 391 kts 210°
2026-05-05 05:35 -4.64040 120.13524 21868 ft 391 kts 210°
2026-05-05 05:35 -4.66379 120.12137 21361 ft 390 kts 210°
2026-05-05 05:35 -4.68704 120.10757 20967 ft 386 kts 210°
2026-05-05 05:36 -4.70996 120.09396 20633 ft 380 kts 210°
2026-05-05 05:36 -4.73252 120.08057 20318 ft 374 kts 210°
2026-05-05 05:36 -4.74734 120.07177 20048 ft 373 kts 210°
2026-05-05 05:36 -4.76958 120.05856 19637 ft 370 kts 210°
2026-05-05 05:37 -4.79169 120.04544 19199 ft 369 kts 210°
2026-05-05 05:37 -4.81371 120.03236 18787 ft 366 kts 210°
2026-05-05 05:37 -4.83557 120.01939 18330 ft 365 kts 210°
2026-05-05 05:37 -4.85739 120.00643 17911 ft 363 kts 210°
2026-05-05 05:38 -4.86664 120.00094 17746 ft 362 kts 210°